Portland, ME

6:36 AM EDT on May 28, 2018 (GMT -0400)
Portland International

Weather History for KPWM - January, 2013

Change the Weather History Date:

Tuesday, January 22, 2013

  Actual Average Record
Temperature  
Mean Temperature 15 °F 22 °F  
Max Temperature 22 °F 31 °F 51 °F (1957)
Min Temperature 8 °F 13 °F -19 °F (1984)
Degree Days  
Heating Degree Days 50 43  
Month to date heating degree days 825 936  
Since 1 July heating degree days 3175 3548  
Cooling Degree Days 0 0  
Month to date cooling degree days 0 0  
Year to date cooling degree days 0 0  
Moisture  
Dew Point 3 °F    
Average Humidity 60    
Maximum Humidity 73    
Minimum Humidity 46    
Precipitation  
Precipitation T in 0.11 in 1.80 in (1958)
Month to date precipitation 0.65 2.42  
Year to date precipitation 0.65 2.42  
Snow  
Snow T in 0.60 in 6.30 in (1907)
Month to date snowfall 5.2 13.9  
Since 1 July snowfall 32.9 29.0  
Snow Depth 9.00 in    
Sea Level Pressure  
Sea Level Pressure 29.86 in    
Wind  
Wind Speed 9 mph (NNW)    
Max Wind Speed 20 mph    
Max Gust Speed 25 mph    
Visibility 10 miles    
Events      
T = Trace of Precipitation, MM = Missing Value Source: NWS Daily Summary

Daily Weather History Graph

Daily Weather History Graph

Search for Another Location

Airport or City:

Astronomy

Jan. 22, 2013 Rise Set
Actual Time 7:06 AM EST 4:39 PM EST
Civil Twilight 6:35 AM EST 5:10 PM EST
Nautical Twilight 6:00 AM EST 5:45 PM EST
Astronomical Twilight 5:26 AM EST 6:19 PM EST
Moon 12:58 PM EST (1/22) 3:26 AM EST (1/22)
Length of Visible Light 10h 34m
Length of Day
9h 32m
Waxing Gibbous, 82% of the Moon is Illuminated
Jan 22
Waxing Gibbous
Jan 26
Full
Feb 3
Last Quarter
Feb 10
New
Feb 17
First Quarter

Hourly Weather History & Observations

Time (EST) Temp. Windchill Dew Point Humidity Pressure Visibility Wind Dir Wind Speed Gust Speed Precip Events Conditions
12:51 AM 21.9 °F 13.4 °F 10.9 °F 63% 29.80 in 10.0 mi NE 6.9 mph - N/A   Overcast
1:51 AM 19.9 °F 8.6 °F 10.0 °F 65% 29.79 in 10.0 mi North 10.4 mph - N/A   Overcast
2:51 AM 19.0 °F 7.5 °F 8.1 °F 62% 29.78 in 10.0 mi North 10.4 mph - N/A   Overcast
3:51 AM 18.0 °F 5.4 °F 6.1 °F 60% 29.76 in 10.0 mi North 11.5 mph - N/A   Overcast
4:51 AM 17.1 °F 4.3 °F 5.0 °F 59% 29.76 in 10.0 mi North 11.5 mph - N/A   Overcast
5:51 AM 16.0 °F 1.7 °F 3.0 °F 57% 29.77 in 10.0 mi North 13.8 mph - N/A   Overcast
6:51 AM 15.1 °F 1.8 °F 1.9 °F 56% 29.78 in 10.0 mi North 11.5 mph - N/A   Mostly Cloudy
7:51 AM 15.1 °F -0.1 °F 1.0 °F 54% 29.81 in 10.0 mi North 15.0 mph - N/A   Overcast
8:51 AM 12.9 °F -2.2 °F 1.9 °F 62% 29.83 in 10.0 mi North 13.8 mph - N/A   Mostly Cloudy
9:51 AM 14.0 °F 2.0 °F 3.9 °F 64% 29.84 in 10.0 mi North 9.2 mph - N/A   Partly Cloudy
10:51 AM 16.0 °F 7.4 °F 3.9 °F 59% 29.83 in 10.0 mi NNW 5.8 mph - N/A   Partly Cloudy
11:51 AM 18.0 °F - 5.0 °F 57% 29.82 in 10.0 mi Calm Calm - N/A   Partly Cloudy
12:51 PM 19.9 °F 13.4 °F 6.1 °F 55% 29.81 in 10.0 mi ENE 4.6 mph - N/A   Scattered Clouds
1:51 PM 19.9 °F 13.4 °F 7.0 °F 57% 29.82 in 7.0 mi Variable 4.6 mph - N/A   Mostly Cloudy
2:51 PM 19.9 °F 13.4 °F 12.0 °F 71% 29.84 in 10.0 mi NNE 4.6 mph - 0.00 in   Overcast
3:51 PM 21.0 °F 7.1 °F 5.0 °F 50% 29.86 in 10.0 mi North 16.1 mph - N/A   Overcast
4:01 PM 19.9 °F 8.6 °F 10.0 °F 65% 29.87 in 10.0 mi NNE 10.4 mph - N/A   Overcast
4:51 PM 19.0 °F - 7.0 °F 59% 29.90 in 10.0 mi Calm Calm - N/A   Mostly Cloudy
5:51 PM 18.0 °F 4.8 °F -0.0 °F 45% 29.93 in 10.0 mi NW 12.7 mph - N/A   Clear
6:51 PM 16.0 °F 4.4 °F 1.0 °F 52% 29.97 in 10.0 mi WNW 9.2 mph - N/A   Scattered Clouds
7:51 PM 16.0 °F 2.3 °F -0.9 °F 47% 29.99 in 10.0 mi WNW 12.7 mph - N/A   Overcast
8:51 PM 12.9 °F -0.9 °F -4.0 °F 47% 30.00 in 10.0 mi WNW 11.5 mph - N/A   Clear
9:51 PM 12.0 °F -1.3 °F -5.1 °F 46% 30.02 in 10.0 mi WNW 10.4 mph - N/A   Clear
10:51 PM 10.0 °F -3.7 °F -6.0 °F 48% 30.04 in 10.0 mi WNW 10.4 mph - N/A   Clear
11:51 PM 8.1 °F -2.0 °F -6.0 °F 53% 30.04 in 10.0 mi West 5.8 mph - N/A   Clear